Tracking 19709 objects as of 18-Jun-2019
HD Live streaming from Space Station
objects crossing your sky now

COSMOS 1375 DEB

Track COSMOS 1375 DEB now!
10-day predictions


NORAD ID: 17807
Int'l Code: 1982-055AZ
Perigee: 937.2 km
Apogee: 1,013.8 km
Inclination: 65.8 °
Period: 104.4 minutes
Semi major axis: 7346 km
RCS: 0.033 m2 (small)
Launch date: June 6, 1982
Source: Commonwealth of Independent States (former USSR) (CIS)
Launch site: PLESETSK MISSILE AND SPACE COMPLEX (PKMTR)

Note: This is SATELLITE DEBRIS
aabbcc
Your satellite tracking list
Your tracking list is empty




NASA's NSSDC Master Catalog

Two Line Element Set (TLE):
1 17807U 82055AZ  19168.85630229 +.00000218 +00000-0 +29081-3 0  9997
2 17807 065.8325 353.3700 0052097 158.6689 312.6654 13.78741780686734
Source of the keplerian elements: AFSPC